FLOCK 4Q 34

导读 | 星芒AI

FLOCK 4Q 34 是Planet Labs公司发射的 Dove 系列小型地球观测卫星之一,属于FLOCK 4Q组网卫星。该卫星主要用于高分辨率光学成像,支持全球范围的每日重访能力,广泛应用于环境监测、农业分析、灾害评估等领域。卫星采用标准化设计,具备高效能、低成本的特点,是商业遥感领域的重要组成部分。

基本信息
目录编号:
58316
目录名称:
FLOCK 4Q 34
国际标识:
2023-174BN
轨道中心:
EARTH
卫星名称:
FLOCK 4Q 34
卫星全名:
--
卫星状态:
在轨 (已飞行757 天)
发射日期:
2023-11-11 UTC
国别 :
美国 (US)
星等 :
--
轨道信息
数据来源 国际轨道数据
星历时间: 2025-12-07T06:18:55+0800
18小时前
查看轨道信息
半长轴: 6804.104km
偏心率: 0.0008128
轨道倾角: 97.401°
近地点辐角 111.741°
升交点赤经 63.314°
平近点角 248.471°
近地点: 420.438km
远地点: 431.5km
周期: 93.093分钟
每日圈数: 15.468436
详细信息
使用方式:
暂无
2D轨道图
3D轨道图
轨道高度分析图
轨道倾角分析图
轨道综合分析图
查看轨道综合分析图